"Month","Million Current Dollars"
1925-01-01,70.1000
1925-02-01,42.8000
1925-03-01,56.1000
1925-04-01,66.2000
1925-05-01,81.9000
1925-06-01,96.9000
1925-07-01,72.0000
1925-08-01,108.000
1925-09-01,85.4000
1925-10-01,58.7000
1925-11-01,62.7000
1925-12-01,71.7000
1926-01-01,71.3000
1926-02-01,68.2000
1926-03-01,108.800
1926-04-01,89.3000
1926-05-01,70.9000
1926-06-01,68.0000
1926-07-01,67.2000
1926-08-01,81.3000
1926-09-01,97.4000
1926-10-01,63.6000
1926-11-01,59.7000
1926-12-01,75.2000
1927-01-01,80.1000
1927-02-01,67.9000
1927-03-01,113.800
1927-04-01,80.8000
1927-05-01,72.5000
1927-06-01,88.1000
1927-07-01,83.0000
1927-08-01,76.9000
1927-09-01,59.6000
1927-10-01,79.7000
1927-11-01,43.5000
1927-12-01,86.9000
1928-01-01,68.9000
1928-02-01,57.7000
1928-03-01,73.1000
1928-04-01,82.8000
1928-05-01,91.2000
1928-06-01,93.9000
1928-07-01,95.7000
1928-08-01,58.9000
1928-09-01,60.1000
1928-10-01,67.3000
1928-11-01,68.3000
1928-12-01,66.8000
1929-01-01,96.9000
1929-02-01,68.3000
1929-03-01,75.6000
1929-04-01,78.0000
1929-05-01,86.5000
1929-06-01,80.9000
1929-07-01,91.4000
1929-08-01,72.0000
1929-09-01,76.9000
1929-10-01,67.7000
1929-11-01,101.800
1929-12-01,33.4000
1930-01-01,54.1000
1930-02-01,72.9000
1930-03-01,77.0000
1930-04-01,73.2000
1930-05-01,73.3000
1930-06-01,59.1000
1930-07-01,46.9000
1930-08-01,50.9000
1930-09-01,31.1000
1930-10-01,35.7000
1930-11-01,29.5000
1930-12-01,25.1000
1931-01-01,26.9000
1931-02-01,27.1000
1931-03-01,36.2000
1931-04-01,26.2000
1931-05-01,25.7000
1931-06-01,26.9000
1931-07-01,28.4000
1931-08-01,19.1000
1931-09-01,28.6000
1931-10-01,41.3000
1931-11-01,14.1000
1931-12-01,10.6000
1932-01-01,9.10000
1932-02-01,10.1000
1932-03-01,10.6000
1932-04-01,12.9000
1932-05-01,12.2000
1932-06-01,13.0000
1932-07-01,8.30000
1932-08-01,18.4000
1932-09-01,8.80000
1932-10-01,7.00000
1932-11-01,6.70000
1932-12-01,5.80000
1933-01-01,5.80000
1933-02-01,7.60000
1933-03-01,7.20000
1933-04-01,6.60000
1933-05-01,8.90000
1933-06-01,9.60000
1933-07-01,11.5000
1933-08-01,10.5000
1933-09-01,7.40000
1933-10-01,9.80000
1933-11-01,7.30000
1933-12-01,7.10000
1934-01-01,9.40000
1934-02-01,7.60000
1934-03-01,13.0000
1934-04-01,11.9000
1934-05-01,24.6000
1934-06-01,11.9000
1934-07-01,12.9000
1934-08-01,13.5000
1934-09-01,13.1000
1934-10-01,13.5000
1934-11-01,11.0000
1934-12-01,8.20000
1935-01-01,10.8000
1935-02-01,9.20000
1935-03-01,12.2000
1935-04-01,15.2000
1935-05-01,13.9000
1935-06-01,15.0000
1935-07-01,15.8000
1935-08-01,17.3000
1935-09-01,13.6000
1935-10-01,16.6000
1935-11-01,12.8000
1935-12-01,12.0000
1936-01-01,15.6000
1936-02-01,12.6000
1936-03-01,17.3000
1936-04-01,24.3000
1936-05-01,18.8000
1936-06-01,21.9000
1936-07-01,28.6000
1936-08-01,22.0000
1936-09-01,20.1000
1936-10-01,22.0000
1936-11-01,23.0000
1936-12-01,23.2000
1937-01-01,21.5000
1937-02-01,22.3000
1937-03-01,30.0000
1937-04-01,28.5000
1937-05-01,25.6000
1937-06-01,24.5000
1937-07-01,29.1000
1937-08-01,29.6000
1937-09-01,25.3000
1937-10-01,25.2000
1937-11-01,18.9000
1937-12-01,16.5000
1938-01-01,15.4000
1938-02-01,13.0000
1938-03-01,20.2000
1938-04-01,18.9000
1938-05-01,19.2000
1938-06-01,18.8000
1938-07-01,26.2000
1938-08-01,18.3000
1938-09-01,14.0000
1938-10-01,24.2000
1938-11-01,13.7000
1938-12-01,14.0000
1939-01-01,17.3000
1939-02-01,13.5000
1939-03-01,17.4000
1939-04-01,21.3000
1939-05-01,19.5000
1939-06-01,26.8000
1939-07-01,23.0000
1939-08-01,21.1000
1939-09-01,26.6000
1939-10-01,22.6000
1939-11-01,20.4000
1939-12-01,17.4000
1940-01-01,15.9000
1940-02-01,20.2000
1940-03-01,23.1000
1940-04-01,24.0000
1940-05-01,26.1000
1940-06-01,33.1000
1940-07-01,38.9000
1940-08-01,28.6000
1940-09-01,27.1000
1940-10-01,29.4000
1940-11-01,24.9000
1940-12-01,27.1000
1941-01-01,26.9000
1941-02-01,20.9000
1941-03-01,33.1000
1941-04-01,36.2000
1941-05-01,50.8000
1941-06-01,35.7000
1941-07-01,37.2000
1941-08-01,69.8000
1941-09-01,51.9000
1941-10-01,48.6000
1941-11-01,29.3000
1941-12-01,30.7000
1942-01-01,17.7000
1942-02-01,21.8000
1942-03-01,36.8000
1942-04-01,30.9000
1942-05-01,23.8000
1942-06-01,46.2000
1942-07-01,34.7000
1942-08-01,21.3000
1942-09-01,6.10000
1942-10-01,18.9000
1942-11-01,14.1000
1942-12-01,30.0000
1943-01-01,7.20000
1943-02-01,22.7000
1943-03-01,25.2000
1943-04-01,6.60000
1943-05-01,9.30000
1943-06-01,6.90000
1943-07-01,5.30000
1943-08-01,7.50000
1943-09-01,5.10000
1943-10-01,11.2000
1943-11-01,7.90000
1943-12-01,6.00000
1944-01-01,4.10000
1944-02-01,4.50000
1944-03-01,7.40000
1944-04-01,6.10000
1944-05-01,5.90000
1944-06-01,8.70000
1944-07-01,5.60000
1944-08-01,7.90000
1944-09-01,6.40000
1944-10-01,7.70000
1944-11-01,7.10000
1944-12-01,9.50000
1945-01-01,7.50000
1945-02-01,8.50000
1945-03-01,10.0000
1945-04-01,12.3000
1945-05-01,9.50000
1945-06-01,18.8000
1945-07-01,19.8000
1945-08-01,25.5000
1945-09-01,45.5000
1945-10-01,60.8000
1945-11-01,62.8000
1945-12-01,65.5000
1946-01-01,69.0000
1946-02-01,77.5000
1946-03-01,112.700
1946-04-01,75.1000
1946-05-01,88.7000
1946-06-01,55.2000
1946-07-01,72.8000
1946-08-01,56.6000
1946-09-01,50.0000
1946-10-01,41.0000
1946-11-01,36.1000
1946-12-01,38.6000
1947-01-01,38.1000
1947-02-01,45.7000
1947-03-01,52.1000
1947-04-01,66.2000
1947-05-01,58.9000
1947-06-01,57.8000
1947-07-01,79.6000
1947-08-01,76.7000
1947-09-01,75.6000
1947-10-01,79.6000
1947-11-01,83.6000
1947-12-01,65.2000
1948-01-01,74.5000
1948-02-01,75.5000
1948-03-01,78.5000
1948-04-01,88.8000
1948-05-01,103.300
1948-06-01,83.1000
1948-07-01,106.300
1948-08-01,77.8000
1948-09-01,80.4000
1948-10-01,83.8000
1948-11-01,60.2000
1948-12-01,62.9000
1949-01-01,62.6000
1949-02-01,58.8000
1949-03-01,88.4000
1949-04-01,92.0000
1949-05-01,68.5000
1949-06-01,70.9000
1949-07-01,73.4000
1949-08-01,64.4000
1949-09-01,103.900
1949-10-01,82.8000
1949-11-01,58.6000
1949-12-01,60.7000
1950-01-01,60.6000
1950-02-01,58.3000
1950-03-01,88.6000
1950-04-01,106.800
1950-05-01,96.4000
1950-06-01,97.7000
1950-07-01,117.400
1950-08-01,137.900
1950-09-01,137.200
1950-10-01,104.500
1950-11-01,94.4000
1950-12-01,108.900
1951-01-01,121.200
1951-02-01,101.800
1951-03-01,78.8000
1951-04-01,106.300
1951-05-01,60.6000
1951-06-01,65.5000
1951-07-01,75.4000
1951-08-01,65.5000
1951-09-01,80.0000
1951-10-01,68.8000
1951-11-01,48.4000
1951-12-01,43.2000
1952-01-01,55.7000
1952-02-01,62.2000
1952-03-01,70.6000
1952-04-01,75.3000
1952-05-01,79.9000
1952-06-01,74.2000
1952-07-01,92.2000
1952-08-01,94.2000
1952-09-01,97.1000
1952-10-01,93.1000
1952-11-01,84.5000
1952-12-01,100.400
1953-01-01,87.2000
1953-02-01,100.200
1953-03-01,100.900
1953-04-01,119.800
1953-05-01,156.400
1953-06-01,99.4000
1953-07-01,200.100
1953-08-01,111.300
1953-09-01,145.400
1953-10-01,170.700
1953-11-01,101.400
1953-12-01,96.7000
1954-01-01,114.000
1954-02-01,93.0000
1954-03-01,133.500
1954-04-01,178.500
1954-05-01,179.500
1954-06-01,191.900
1954-07-01,145.400
1954-08-01,140.900
1954-09-01,129.600
1954-10-01,186.400
1954-11-01,129.300
1954-12-01,193.700
1955-01-01,165.500
1955-02-01,133.100
1955-03-01,194.000
1955-04-01,173.900
1955-05-01,183.000
1955-06-01,228.500
1955-07-01,288.300
1955-08-01,214.600
1955-09-01,196.600
1955-10-01,184.600
1955-11-01,199.800
1955-12-01,197.500
1956-01-01,160.800
1956-02-01,183.200
1956-03-01,205.700
1956-04-01,209.600
1956-05-01,216.500
1956-06-01,224.000
1956-07-01,241.600
1956-08-01,183.900
1956-09-01,194.900
1956-10-01,167.500
1956-11-01,211.800
1956-12-01,155.500
